Stations météo

réclame
Mon MeteoGroup
Kinloss, Grande-Bretagne (3066): Température de l'air & dewpoint: 15.10.2019 11:00:00 - 21.10.2019 11:00:00 (BST)Kinloss, Grande-Bretagne (3066): Température de l'air -20cm & Température de l'air -100cm: 15.10.2019 11:00:00 - 21.10.2019 11:00:00 (BST)Kinloss, Grande-Bretagne (3066): Vitesse du vent & gusts: 15.10.2019 11:00:00 - 21.10.2019 11:00:00 (BST)Kinloss, Grande-Bretagne (3066): Direction du vent: 15.10.2019 11:00:00 - 21.10.2019 11:00:00 (BST)Kinloss, Grande-Bretagne (3066): reduced air pressure: 15.10.2019 11:00:00 - 21.10.2019 11:00:00 (BST)Kinloss, Grande-Bretagne (3066): visibility: 15.10.2019 11:00:00 - 21.10.2019 11:00:00 (BST)Kinloss, Grande-Bretagne (3066): Ensoleillement: 15.10.2019 11:00:00 - 21.10.2019 11:00:00 (BST)Kinloss, Grande-Bretagne (3066): Quantités de précipitations: 15.10.2019 11:00:00 - 21.10.2019 11:00:00 (BST)
Date & Time tt [°C] td [°C] tt -20cm [°C] tt -100cm [°C] ff [km/h] ff [knt] fx [km/h] fx [knt] dd ppp [hPa] vv [km] sd [min] rr [mm]
21.10.2019 11:00:00 6,3 1,8 - - 15 8 - - SSW 1022,9 55 42 0,0
21.10.2019 10:00:00 4,4 1,1 10,5 10,7 9 5 - - SW 1023,2 55 6 0,0
21.10.2019 09:00:00 4,3 0,6 - - 8 4 - - SSW 1023,3 50 0 0,0
21.10.2019 08:00:00 5,1 1,8 - - 11 6 - - SW 1023,3 50 0 0,0
21.10.2019 07:00:00 5,2 2,3 - - 8 4 - - SW 1023,5 60 0 0,0
21.10.2019 06:00:00 5,4 2,9 - - 8 4 - - SW 1023,7 55 0 0,0
21.10.2019 05:00:00 5,7 2,9 - - 11 6 - - SW 1024,2 55 0 0,0
21.10.2019 04:00:00 5,6 3,2 - - 9 5 - - SW 1024,1 60 0 0,0
21.10.2019 03:00:00 5,7 3,3 - - 9 5 - - SW 1024,1 55 0 0,0
21.10.2019 02:00:00 5,9 3,7 - - 11 6 - - SW 1024,2 50 0 0,0
21.10.2019 01:00:00 7,0 3,5 - - 13 7 - - WNW 1024,1 45 - 0,0
21.10.2019 00:00:00 7,4 3,8 - - 11 6 - - WNW 1024,1 55 0 0,0
20.10.2019 23:00:00 7,6 1,7 - - 13 7 - - N 1023,8 45 0 0,0
20.10.2019 22:00:00 7,9 1,8 - - 15 8 - - N 1023,4 55 0 0,0
20.10.2019 21:00:00 7,9 3,4 - - 21 11 - - N 1023,0 45 0 0,0
20.10.2019 20:00:00 6,8 2,4 - - 18 10 - - N 1022,6 40 0 0,0
20.10.2019 19:00:00 7,7 3,1 - - 22 12 - - N 1022,3 40 0 0,0
20.10.2019 18:00:00 7,5 4,6 - - 24 13 - - N 1021,7 29 0 0,0
20.10.2019 17:00:00 8,4 4,7 - - 26 14 - - N 1021,1 35 0 0,0
20.10.2019 16:00:00 8,1 6,0 - - 24 13 - - NNW 1020,7 35 0 0,0
20.10.2019 15:00:00 8,5 5,5 - - 24 13 - - NNW 1020,1 35 6 0,2
20.10.2019 14:00:00 7,7 4,8 - - 28 15 - - N 1019,5 13 0 0,0
20.10.2019 13:00:00 9,0 5,3 - - 21 11 - - N 1018,7 30 0 0,0
20.10.2019 12:00:00 9,0 4,5 - - 28 15 - - N 1018,1 26 0 0,0
20.10.2019 11:00:00 8,6 4,7 - - 31 17 46 25 N 1017,5 30 0 0,0
20.10.2019 10:00:00 8,3 5,2 10,7 10,7 28 15 48 26 N 1016,6 30 0 0,0
20.10.2019 09:00:00 8,4 4,5 - - 31 17 48 26 N 1015,9 30 0 0,0
20.10.2019 08:00:00 8,3 4,4 - - 34 18 46 25 N 1014,8 30 0 0,0
20.10.2019 07:00:00 8,3 4,8 - - 31 17 50 27 N 1014,0 29 0 0,0
20.10.2019 06:00:00 8,4 5,1 - - 31 17 46 25 N 1013,1 26 0 0,0
20.10.2019 05:00:00 8,4 4,6 - - 37 20 50 27 N 1012,2 30 0 0,0
20.10.2019 04:00:00 8,3 4,7 - - 34 18 - - N 1011,6 30 0 0,0
20.10.2019 03:00:00 8,5 5,3 - - 31 17 46 25 N 1011,1 30 0 0,0
20.10.2019 02:00:00 8,1 4,6 - - 37 20 48 26 NNW 1010,5 30 0 0,0
20.10.2019 01:00:00 8,2 4,7 - - 35 19 52 28 N 1010,2 26 - 0,0
20.10.2019 00:00:00 8,3 4,0 - - 35 19 54 29 N 1009,8 26 0 0,0
19.10.2019 23:00:00 8,7 4,7 - - 35 19 55 30 NNE 1009,2 24 0 0,0
19.10.2019 22:00:00 8,2 5,7 - - 35 19 59 32 NE 1008,5 15 0 0,0
19.10.2019 21:00:00 9,4 5,5 - - 39 21 59 32 NNE 1007,3 30 0 0,4
19.10.2019 20:00:00 9,3 7,8 - - 39 21 59 32 NNE 1006,5 11 0 0,8
19.10.2019 19:00:00 9,9 7,6 - - 28 15 46 25 N 1005,7 25 0 1,4
19.10.2019 18:00:00 10,2 7,7 - - 26 14 - - N 1004,9 30 0 0,2
19.10.2019 17:00:00 9,9 8,0 - - 31 17 - - NNE 1004,4 9 6 0,0
19.10.2019 16:00:00 10,0 8,4 - - 28 15 - - N 1003,8 35 0 0,2
19.10.2019 15:00:00 9,8 7,7 - - 26 14 - - N 1003,5 3,1 12 0,4
19.10.2019 14:00:00 10,9 8,2 - - 22 12 - - N 1003,2 35 30 0,0
19.10.2019 13:00:00 9,7 7,6 - - 26 14 - - NNE 1003,1 11 36 0,0
19.10.2019 12:00:00 10,5 7,4 - - 26 14 - - N 1002,9 40 12 0,0
19.10.2019 11:00:00 10,0 7,3 - - 28 15 - - N 1002,6 35 0 0,0
19.10.2019 10:00:00 10,3 8,1 10,7 10,9 28 15 - - N 1002,3 30 6 0,0
19.10.2019 09:00:00 9,7 7,4 - - 29 16 - - NNE 1001,8 28 0 0,0
19.10.2019 08:00:00 9,7 7,8 - - 29 16 - - N 1001,4 25 0 0,0
19.10.2019 07:00:00 10,0 8,0 - - 28 15 - - NNE 1001,0 25 0 0,0
19.10.2019 06:00:00 10,4 7,2 - - 28 15 46 25 NE 1000,5 28 0 0,0
19.10.2019 05:00:00 10,4 7,5 - - 34 18 48 26 NE 999,7 29 0 0,4
19.10.2019 04:00:00 10,6 7,9 - - 31 17 48 26 NNE 999,2 21 0 0,0
19.10.2019 03:00:00 10,7 8,6 - - 26 14 - - NE 998,8 27 0 0,0
19.10.2019 02:00:00 10,6 9,2 - - 29 16 46 25 NE 998,2 23 0 0,2
19.10.2019 01:00:00 10,7 10,0 - - 26 14 52 28 NE 997,8 19 - 1,2
19.10.2019 00:00:00 10,2 9,5 - - 24 13 - - NE 997,5 11 0 2,4
18.10.2019 23:00:00 10,5 10,0 - - 22 12 - - NE 997,2 6 0 3,4
18.10.2019 22:00:00 10,8 9,8 - - 24 13 - - NE 996,8 26 0 0,0
18.10.2019 21:00:00 10,5 9,7 - - 22 12 - - NE 996,5 23 0 0,0
18.10.2019 20:00:00 10,6 10,0 - - 21 11 - - NE 996,2 21 0 0,0
18.10.2019 19:00:00 10,4 9,9 - - 18 10 - - NE 995,9 21 0 0,2
18.10.2019 18:00:00 9,5 9,0 - - 9 5 - - N 995,8 7 0 0,6
18.10.2019 17:00:00 9,4 8,4 - - 5 3 - - NNE 995,7 17 0 1,8
18.10.2019 16:00:00 10,8 8,9 - - 15 8 - - ENE 995,8 40 0 0,0
18.10.2019 15:00:00 11,0 9,5 - - 11 6 - - NNE 995,6 40 30 0,0
18.10.2019 14:00:00 10,6 9,2 - - 13 7 - - NNE 995,7 35 30 0,0
18.10.2019 13:00:00 11,0 8,9 - - 8 4 - - N 995,8 30 42 0,0
18.10.2019 12:00:00 11,6 8,2 - - 4 2 - - SE 995,9 35 48 0,0
18.10.2019 11:00:00 7,6 7,4 - - 2 1 - - S 996,1 20 18 0,0
18.10.2019 10:00:00 6,7 6,6 10,7 11,0 4 2 - - SSE 996,3 18 18 0,0
18.10.2019 09:00:00 3,7 3,4 - - 2 1 - - NE 995,9 7 0 0,0
18.10.2019 08:00:00 5,1 4,7 - - 9 5 - - NNE 995,7 18 0 0,0
18.10.2019 07:00:00 6,5 5,9 - - 8 4 - - ENE 995,5 20 0 0,0
18.10.2019 06:00:00 7,5 6,8 - - 5 3 - - E 995,5 18 0 0,0
18.10.2019 05:00:00 8,5 7,8 - - 16 9 - - E 995,5 19 0 0,0
18.10.2019 04:00:00 8,4 7,3 - - 15 8 - - E 995,9 20 0 0,0
18.10.2019 03:00:00 6,7 5,8 - - 13 7 - - ESE 996,5 20 0 0,0
18.10.2019 02:00:00 7,6 5,6 - - 13 7 - - E 996,8 30 0 0,0
18.10.2019 01:00:00 8,4 6,5 - - 16 9 - - E 997,0 30 - 0,0
18.10.2019 00:00:00 8,6 7,0 - - 15 8 - - ESE 997,3 35 0 0,0
17.10.2019 23:00:00 7,7 6,3 - - 9 5 - - E 997,5 27 0 0,0
17.10.2019 22:00:00 6,8 5,2 - - 11 6 - - ENE 997,9 22 0 0,0
17.10.2019 21:00:00 9,0 6,2 - - 13 7 - - ESE 998,0 30 0 0,0
17.10.2019 20:00:00 9,0 6,6 - - 8 4 - - E 998,1 35 0 0,0
17.10.2019 19:00:00 8,8 6,4 - - 9 5 - - ESE 998,3 35 0 0,0
17.10.2019 18:00:00 10,8 6,4 - - 11 6 - - SSE 998,3 50 0 0,0
17.10.2019 17:00:00 12,4 6,9 - - 13 7 - - SSE 998,3 50 0 0,0
17.10.2019 16:00:00 13,2 7,3 - - 4 2 - - SE 998,4 45 18 0,0
17.10.2019 15:00:00 14,1 6,0 - - 11 6 - - S 998,8 35 42 0,0
17.10.2019 14:00:00 14,2 7,1 - - 9 5 - - SSE 999,0 45 54 0,0
17.10.2019 13:00:00 13,1 6,8 - - 15 8 - - SE 999,2 45 60 0,0
17.10.2019 12:00:00 12,4 6,3 - - 13 7 - - SSE 999,7 45 60 0,0
17.10.2019 11:00:00 10,0 6,5 - - 4 2 - - E 1000,0 45 60 0,0
17.10.2019 10:00:00 6,2 4,5 10,7 11,0 5 3 - - SSW 1000,2 45 60 0,0
17.10.2019 09:00:00 2,2 1,1 - - 8 4 - - W 1000,0 45 30 0,0
17.10.2019 08:00:00 4,1 1,2 - - 9 5 - - S 999,7 50 0 0,0
17.10.2019 07:00:00 3,4 1,5 - - 2 1 - - ESE 999,6 45 0 0,0
17.10.2019 06:00:00 3,2 1,5 - - 5 3 - - SSW 999,6 45 0 0,0
17.10.2019 05:00:00 2,2 1,4 - - 2 1 - - NW 999,8 40 0 0,0
17.10.2019 04:00:00 2,7 1,4 - - 8 4 - - W 999,8 45 0 0,2
17.10.2019 03:00:00 5,0 3,8 - - 11 6 - - SW 999,9 50 0 0,0
17.10.2019 02:00:00 4,3 3,3 - - 9 5 - - SSW 999,9 45 0 0,0
17.10.2019 01:00:00 3,9 3,2 - - 9 5 - - WSW 999,8 40 - 0,0
17.10.2019 00:00:00 4,4 4,0 - - 8 4 - - W 999,5 45 0 0,0
16.10.2019 23:00:00 4,4 3,5 - - 9 5 - - SW 999,3 35 0 0,0
16.10.2019 22:00:00 6,4 5,0 - - 11 6 - - SSW 999,2 45 0 0,0
16.10.2019 21:00:00 6,4 5,5 - - 9 5 - - SSW 998,5 40 0 0,0
16.10.2019 20:00:00 7,1 5,6 - - 5 3 - - SW 998,2 45 0 0,0
16.10.2019 19:00:00 8,0 6,6 - - 5 3 - - SSW 997,6 35 0 0,0
16.10.2019 18:00:00 10,0 8,1 - - 8 4 - - SW 997,1 25 12 0,0
16.10.2019 17:00:00 11,4 9,3 - - 8 4 - - W 996,7 50 36 0,0
16.10.2019 16:00:00 11,2 9,5 - - 15 8 - - WSW 996,7 45 0 0,0
16.10.2019 15:00:00 10,4 9,4 - - 13 7 - - SSW 996,3 11 0 0,8
16.10.2019 14:00:00 10,8 9,6 - - 16 9 - - WSW 995,9 26 0 0,2
16.10.2019 13:00:00 12,0 10,5 - - 5 3 - - SE 995,1 35 0 0,0
16.10.2019 12:00:00 11,1 10,4 - - 2 1 - - NNW 994,9 40 0 0,0
16.10.2019 11:00:00 9,6 9,3 - - 2 1 - - SSW 994,6 29 0 0,0
16.10.2019 10:00:00 8,3 7,9 10,9 11,0 5 3 - - E 994,6 24 0 0,4
16.10.2019 09:00:00 7,9 7,5 - - 5 3 - - ESE 994,6 35 0 0,2
16.10.2019 08:00:00 6,7 6,4 - - 5 3 - - ESE 994,7 40 0 0,0
16.10.2019 07:00:00 5,1 5,0 - - 4 2 - - ESE 994,7 45 0 0,0
16.10.2019 06:00:00 3,4 3,1 - - 4 2 - - E 995,1 27 0 0,0
16.10.2019 05:00:00 2,7 2,3 - - 4 2 - - N 996,0 30 0 0,0
16.10.2019 04:00:00 3,8 3,5 - - 4 2 - - ENE 996,5 28 0 0,0
16.10.2019 03:00:00 5,1 4,9 - - 5 3 - - SSW 997,2 35 0 0,0
16.10.2019 02:00:00 4,6 4,3 - - 9 5 - - E 997,5 22 0 0,0
16.10.2019 01:00:00 5,7 5,3 - - 5 3 - - SE 998,4 23 - 0,0
16.10.2019 00:00:00 6,9 6,4 - - 13 7 - - E 998,7 29 0 0,0
15.10.2019 23:00:00 7,7 7,3 - - 16 9 - - E 998,9 30 0 0,0
15.10.2019 22:00:00 7,7 6,8 - - 11 6 - - E 999,3 45 0 0,0
15.10.2019 21:00:00 8,3 8,0 - - 13 7 - - E 999,5 40 0 0,0
15.10.2019 20:00:00 7,7 6,5 - - 9 5 - - E 999,8 35 0 0,0
15.10.2019 19:00:00 9,4 8,0 - - 15 8 - - E 1000,1 40 0 0,0
15.10.2019 18:00:00 10,8 8,4 - - 15 8 - - E 1000,3 45 6 0,0
15.10.2019 17:00:00 11,4 8,7 - - 15 8 - - E 1000,3 40 6 0,0
15.10.2019 16:00:00 12,1 9,3 - - 21 11 - - E 1000,4 35 42 0,0
15.10.2019 15:00:00 13,1 9,2 - - 18 10 - - ENE 1000,7 50 36 0,0
15.10.2019 14:00:00 13,7 7,7 - - 15 8 - - ESE 1000,9 55 54 0,0
15.10.2019 13:00:00 13,4 8,6 - - 16 9 - - ESE 1001,5 55 60 0,0
15.10.2019 12:00:00 11,8 8,2 - - 8 4 - - ENE 1002,3 45 60 0,0
15.10.2019 11:00:00 10,1 7,5 - - 2 1 - - WNW 1002,7 40 60 0,0

tt = Température de l'air
td = dewpoint
tt -20cm = Température de l'air -20cm
tt -100cm = Température de l'air -100cm
ff = Vitesse du vent
fx = gusts
dd = Direction du vent
ppp = reduced air pressure
vv = visibility
sd = Ensoleillement
rr = Quantités de précipitations

stations d'obs. à proximité